Hourly Data Report for October 19, 2016

All times are specified in Local Standard Time (LST). Add 1 hour to adjust for Daylight Saving Time where and when it is observed.

SAINT JOHN A
NEW BRUNSWICK

45°18'58.000" N
65°53'24.000" W
108.80 m
8104901
71609
YSJ

Download Data

Hourly Data (October 2016)
Hourly Data Report for October 19, 2016
Temp Definition
°C
Dew Point Temp Definition
°C
Rel Hum Definition
%
Wind Dir Definition
10's deg

Wind Spd Definition
km/h
Visibility Definition
km
Stn Press Definition
kPa
Hmdx Definition


Wind Chill Definition


Weather Definition


TIME
00:00 Legend Double Dagger 14.0 14.0 100 17 30 4.8 99.57     Fog
01:00 Legend Double Dagger 15.0 15.0 100 17 33 4.8 99.44     Fog
02:00 Legend Double Dagger 15.0 15.0 100 19 32 3.2 99.38     Fog
03:00 Legend Double Dagger 14.5 14.5 100 21 38 2.4 99.33     Fog
04:00 Legend Double Dagger 15.0 15.0 100 22 30 4.0 99.34     Rain,Fog
05:00 Legend Double Dagger 14.7 14.7 100 22 25 4.0 99.30     Rain,Fog
06:00 Legend Double Dagger 14.6 14.6 100 22 21 4.0 99.33     Fog
07:00 Legend Double Dagger 14.1 14.1 100 22 22 2.4 99.38     Fog
08:00 Legend Double Dagger 14.0 14.0 100 22 17 2.4 99.44     Rain,Fog
09:00 Legend Double Dagger 14.2 14.2 100 22 19 3.2 99.49     Fog
10:00 Legend Double Dagger 14.4 14.4 100 23 18 3.2 99.53     Fog
11:00 Legend Double Dagger 15.1 15.1 100 22 19 4.8 99.54     Fog
12:00 Legend Double Dagger 16.6 15.8 95 22 15 9.7 99.57     Fog
13:00 Legend Double Dagger 19.6 14.1 70 23 17 24.1 99.54     LegendNANA
14:00 Legend Double Dagger 21.8 6.2 36 28 18 24.1 99.56     Mainly Clear
15:00 Legend Double Dagger 21.8 5.4 34 27 21 24.1 99.60     LegendNANA
16:00 Legend Double Dagger 20.9 6.6 39 32 22 24.1 99.67     LegendNANA
17:00 Legend Double Dagger 18.2 6.8 47 32 17 24.1 99.80     Clear
18:00 Legend Double Dagger 15.7 6.5 54 31 15 24.1 99.96     LegendNANA
19:00 Legend Double Dagger 14.0 6.7 61 33 16 24.1 100.10     LegendNANA
20:00 Legend Double Dagger 13.2 4.9 57 31 26 24.1 100.26     Clear
21:00 Legend Double Dagger 11.9 4.9 62 32 20 24.1 100.35     LegendNANA
22:00 Legend Double Dagger 10.8 4.7 66 31 20 24.1 100.41     LegendNANA
23:00 Legend Double Dagger 10.4 4.4 66 33 11 24.1 100.51     Clear

Notes on Data Quality.

Legend

  • E = Estimated
  • M = Missing
  • NA = Not Available
  • ‡ = Partner data that is not subject to review by the National Climate Archives
Date modified: